Date,TemperatureHighF,TemperatureAvgF,TemperatureLowF,DewpointHighF,DewpointAvgF,DewpointLowF,HumidityHigh,HumidityAvg,HumidityLow,PressureMaxIn,PressureMinIn,WindSpeedMaxMPH,WindSpeedAvgMPH,GustSpeedMaxMPH,PrecipitationSumIn
2013-2-12,36,35,34,29,28,28,79,76,73,30.07,30.07,8,2,8,0.00
2013-2-13,41,35,32,41,32,26,98,89,78,30.07,29.50,15,3,15,0.91
2013-2-14,46,43,41,44,41,40,98,94,84,29.83,29.53,10,6,18,0.21
2013-2-15,48,42,36,42,39,34,96,88,70,30.12,29.83,7,4,11,0.00
2013-2-16,47,42,35,44,40,34,96,93,89,30.12,30.07,6,2,9,0.00
2013-2-17,48,42,32,43,37,30,93,84,69,30.12,30.07,6,2,10,0.00
2013-2-18,43,35,30,37,31,27,96,85,70,30.12,30.07,3,1,6,0.00
2013-2-19,42,36,27,38,32,24,96,85,68,30.12,30.09,9,4,13,0.00
2013-2-20,42,38,30,39,35,25,98,88,78,30.30,30.12,6,3,8,0.00
2013-2-21,38,32,26,30,25,23,88,73,61,30.33,30.27,7,3,10,0.00
2013-2-22,36,34,32,25,22,21,73,63,58,30.33,30.27,4,2,8,0.00
2013-2-23,39,34,32,29,26,22,85,72,55,30.39,30.24,7,2,12,0.00
2013-2-24,42,36,30,33,30,26,89,81,68,30.48,30.39,5,2,6,0.00
2013-2-25,43,35,28,38,31,26,96,85,71,30.63,30.48,7,3,10,0.00
2013-2-26,43,37,32,36,33,30,94,85,67,30.72,30.63,10,5,13,0.00
2013-2-27,43,36,31,39,33,30,95,92,84,30.72,30.60,4,2,6,0.00
2013-2-28,45,38,30,42,36,29,97,92,85,30.60,30.51,3,2,6,0.00
2013-3-1,48,40,33,41,34,31,95,82,66,30.57,30.45,5,2,9,0.00
2013-3-2,52,43,33,44,38,30,94,82,70,30.45,30.24,6,3,10,0.04
2013-3-3,48,44,41,42,38,35,90,80,68,30.24,30.09,6,2,9,0.00
2013-3-4,47,41,33,35,33,28,84,73,61,30.09,29.74,6,2,8,0.00
2013-3-5,47,38,31,37,32,28,89,78,60,29.74,29.65,7,2,9,0.00
2013-3-6,40,38,36,38,35,32,97,88,83,29.71,29.65,14,9,18,0.00
2013-3-7,42,40,38,41,39,37,98,97,92,29.65,29.53,18,12,25,0.12
2013-3-8,39,38,37,38,37,36,98,95,91,29.71,29.53,19,14,30,0.00
2013-3-9,37,36,34,37,34,25,98,92,68,29.89,29.71,18,12,27,0.13
2013-3-10,36,32,25,31,26,21,97,79,63,30.12,29.89,15,9,22,0.04
2013-3-11,34,28,22,24,18,14,88,68,51,30.15,30.09,15,6,23,0.04
2013-3-12,44,34,23,29,22,14,74,64,52,30.12,29.92,6,3,12,0.00
2013-3-13,44,36,29,29,23,18,77,61,47,30.01,29.89,8,3,12,0.00
2013-3-14,43,36,28,38,30,18,92,78,64,29.98,29.56,10,4,14,0.08
2013-3-15,45,39,33,42,36,31,95,91,84,29.56,29.36,11,4,16,0.25
2013-3-16,36,34,31,35,33,30,97,95,94,29.39,29.21,6,2,8,0.21
2013-3-17,41,36,33,40,35,32,98,96,92,29.27,29.12,10,4,14,0.29
2013-3-18,38,35,31,38,34,30,98,96,89,29.53,29.27,17,11,23,0.17
2013-3-19,34,33,31,33,32,30,98,97,90,29.65,29.50,18,12,29,0.12
2013-3-20,41,35,30,37,32,27,98,92,80,30.07,29.65,9,6,17,0.29
2013-3-21,40,34,28,35,28,24,98,80,61,30.09,30.01,15,7,18,0.00
2013-3-22,35,33,31,32,29,24,98,85,68,30.01,29.92,18,12,29,0.00
2013-3-23,34,33,32,31,26,21,97,77,63,30.18,30.01,18,12,26,0.00
2013-3-24,36,33,32,23,22,20,68,63,55,30.30,30.15,16,12,26,0.04
2013-3-25,37,34,32,25,24,21,75,66,58,30.30,30.24,15,10,23,0.00
2013-3-26,37,33,29,31,26,22,89,75,60,30.24,30.15,14,6,17,0.08
2013-3-27,38,32,29,31,27,22,90,80,63,30.15,30.09,13,6,17,0.05
2013-3-28,40,34,30,32,27,22,95,76,56,30.12,30.03,8,5,15,0.20
2013-3-29,41,34,29,31,26,21,85,73,51,30.03,29.92,12,4,15,0.00
2013-3-30,42,34,27,30,24,21,81,68,52,30.01,29.95,7,2,9,0.00
2013-3-31,42,34,26,31,23,20,84,65,50,30.01,29.98,7,3,10,0.00
2013-4-1,42,34,27,25,21,19,74,60,50,30.09,30.01,13,6,18,0.00
2013-4-2,45,37,30,28,24,21,77,61,48,30.24,30.09,11,5,15,0.00
2013-4-3,45,37,27,34,26,22,86,66,50,30.30,30.24,11,4,13,0.00
2013-4-4,46,39,33,33,27,23,74,63,45,30.30,30.24,11,5,13,0.00
2013-4-5,46,38,32,32,26,21,83,62,48,30.27,30.21,10,5,14,0.00
2013-4-6,52,40,29,36,27,20,73,61,49,30.27,30.21,8,3,13,0.00
2013-4-7,45,39,36,34,31,27,85,72,60,30.21,30.01,12,4,12,0.00
2013-4-8,45,38,34,32,27,20,85,66,50,30.01,29.44,9,7,11,0.00
2013-4-9,45,38,30,31,25,21,78,60,42,29.71,29.65,13,7,20,0.00
2013-4-10,43,38,32,36,33,28,87,81,73,29.68,29.56,9,5,13,0.00
2013-4-11,45,40,35,35,34,31,90,79,67,29.56,29.39,11,6,15,0.00
2013-4-12,44,39,35,38,35,30,93,86,75,29.62,29.36,9,6,12,0.08
2013-4-13,54,46,37,46,38,35,95,76,50,29.74,29.42,11,3,18,0.05
2013-4-14,55,52,48,49,47,44,95,85,72,29.44,29.36,18,10,28,0.45
2013-4-15,58,52,47,46,43,40,89,74,56,29.71,29.44,15,9,24,0.04
2013-4-16,51,47,42,46,41,34,90,78,58,29.83,29.33,23,12,35,0.25
2013-4-17,51,44,38,51,42,33,98,91,75,29.80,29.09,14,6,25,1.24
2013-4-18,53,48,43,47,42,36,98,82,63,29.89,29.03,20,9,29,0.13
2013-4-19,57,46,35,42,34,28,88,65,47,30.42,29.89,9,3,19,0.00
2013-4-20,57,47,36,43,35,30,85,64,48,30.42,30.12,14,6,24,0.00
2013-4-21,52,46,42,45,40,37,90,80,62,30.12,29.83,11,6,20,0.13
2013-4-22,54,46,40,48,42,37,93,83,66,29.83,29.56,20,9,30,0.00
2013-4-23,54,48,44,44,40,37,91,76,57,30.03,29.71,12,7,23,0.00
2013-4-24,55,48,43,49,40,32,96,74,51,30.21,29.86,9,4,16,0.58
2013-4-25,51,44,39,42,36,32,83,75,65,30.18,30.01,9,4,16,0.08
2013-4-26,53,43,36,41,34,31,86,72,50,30.01,29.83,9,5,13,0.08
2013-4-27,55,44,36,34,30,26,77,58,42,30.12,29.95,9,4,17,0.00
2013-4-28,51,44,38,44,38,30,95,78,60,29.95,29.59,15,8,27,0.17
2013-4-29,54,45,38,41,36,32,90,71,48,30.09,29.59,13,7,24,0.00
2013-4-30,58,46,35,40,32,29,84,59,39,30.27,30.09,9,4,15,0.00
2013-5-1,57,47,38,43,34,26,86,62,46,30.24,30.07,10,5,17,0.04
2013-5-2,56,45,33,44,35,26,88,68,48,30.24,29.98,15,4,24,0.04
2013-5-3,52,48,41,49,46,38,96,91,86,29.98,29.62,14,8,24,0.71
2013-5-4,53,45,37,42,38,34,91,77,53,29.86,29.71,15,8,24,0.04
2013-5-5,62,54,47,54,48,41,89,81,70,30.01,29.86,13,8,21,0.00
2013-5-6,54,51,47,51,48,44,93,88,84,30.03,29.98,6,4,12,0.00
2013-5-7,65,54,41,52,45,39,95,73,51,30.07,29.86,10,3,13,0.00
2013-5-8,56,51,47,52,45,39,90,78,63,29.86,29.47,12,7,18,0.04
2013-5-9,57,48,43,44,40,37,96,76,53,29.50,29.33,11,5,17,0.25
2013-5-10,59,48,42,49,43,38,96,84,63,29.59,29.36,11,5,17,0.12
2013-5-11,52,46,42,47,42,39,96,87,74,29.74,29.44,11,6,18,0.34
2013-5-12,50,47,40,48,43,37,93,87,77,29.77,29.56,11,6,19,0.12
2013-5-13,51,42,34,43,38,32,94,84,68,29.59,29.39,18,9,32,0.49
2013-5-14,51,44,40,45,39,35,92,82,68,29.39,29.33,14,7,24,0.17
2013-5-15,57,45,35,43,37,32,90,74,56,29.39,29.27,8,3,13,0.09
2013-5-16,56,47,36,41,36,32,88,67,50,29.68,29.39,9,4,12,0.00
2013-5-17,62,51,38,44,37,33,86,62,41,29.86,29.68,7,3,10,0.00
2013-5-18,55,51,48,54,47,37,98,88,62,29.86,29.68,14,5,21,0.62
2013-5-19,58,52,48,57,51,47,98,98,98,29.98,29.80,10,4,12,0.04
2013-5-20,70,61,53,63,56,52,98,86,69,30.01,29.92,7,3,10,0.00
2013-5-21,66,57,47,54,46,39,92,69,48,30.09,30.01,7,3,11,0.00
2013-5-22,62,52,40,42,36,29,77,56,39,30.09,30.01,9,4,18,0.00
2013-5-23,53,45,38,35,30,27,70,56,47,30.01,29.89,10,5,18,0.00
2013-5-24,56,49,43,36,32,27,60,52,43,30.18,29.92,13,7,20,0.00
2013-5-26,64,58,50,47,42,36,67,55,49,30.01,29.74,9,6,14,0.00
2013-5-27,52,50,46,48,44,39,89,82,68,29.74,29.42,10,6,16,0.41
2013-5-28,57,50,44,48,44,41,91,80,64,29.77,29.50,9,4,13,0.00
2013-5-29,67,55,42,53,46,38,87,72,53,29.92,29.77,9,4,15,0.04
2013-5-30,67,60,52,50,46,42,75,62,50,30.07,29.89,6,3,11,0.00
2013-5-31,67,56,46,52,45,36,83,67,52,30.18,30.07,10,5,14,0.00
2013-6-1,64,52,41,49,40,35,80,64,49,30.30,30.18,9,4,13,0.00
2013-6-2,65,54,43,44,40,37,80,60,44,30.45,30.30,7,4,12,0.00
2013-6-3,70,60,49,56,49,40,77,69,58,30.48,30.42,6,3,11,0.00
2013-6-4,68,60,51,50,46,41,87,61,45,30.48,30.33,9,6,13,0.00
2013-6-5,68,57,50,55,48,43,84,71,57,30.33,30.15,9,4,12,0.00
2013-6-6,69,58,48,53,47,42,86,68,45,30.27,30.18,6,3,9,0.00
2013-6-7,66,56,46,51,46,40,82,68,56,30.33,30.27,9,5,14,0.00
2013-6-8,72,59,46,51,45,40,81,61,42,30.33,30.09,11,4,15,0.00
2013-6-9,64,55,49,52,48,45,89,77,64,30.12,29.98,9,6,14,0.00
2013-6-10,62,54,50,51,48,44,91,79,66,30.01,29.89,8,6,14,0.00
2013-6-11,62,54,47,54,49,44,93,84,66,29.89,29.65,7,4,11,0.09
2013-6-12,64,57,51,56,51,45,93,82,70,29.65,29.56,9,4,13,0.08
2013-6-13,66,56,47,50,44,38,89,66,46,29.77,29.53,9,5,13,0.00
2013-6-14,66,56,47,49,45,43,86,69,50,29.80,29.56,10,5,16,0.08
2013-6-15,53,50,48,50,46,44,93,87,78,29.56,29.39,14,5,20,0.33
2013-6-16,68,57,47,56,49,44,96,75,54,29.98,29.56,6,3,10,0.00
2013-6-17,68,59,50,55,50,43,85,73,55,30.07,29.98,6,3,9,0.00
2013-6-18,70,61,54,57,51,46,90,71,50,30.03,29.92,8,3,12,0.00
2013-6-19,68,59,51,52,46,42,82,63,45,30.01,29.95,10,4,17,0.00
2013-6-20,72,61,49,52,47,42,81,63,44,30.01,29.77,7,2,15,0.00
2013-6-21,67,62,57,56,49,42,77,63,49,29.80,29.59,9,4,13,0.00
2013-6-22,64,57,52,54,49,44,87,75,56,29.59,29.27,10,5,17,0.21
2013-6-23,62,57,50,54,48,43,92,73,62,29.95,29.36,7,4,13,0.00
2013-6-24,63,55,49,44,42,38,77,61,47,30.24,29.95,6,3,11,0.00
2013-6-25,64,56,46,48,44,38,79,66,55,30.39,30.24,8,3,11,0.00
2013-6-26,69,59,48,50,45,42,85,63,44,30.42,30.36,6,4,11,0.00
2013-6-27,60,55,50,57,50,42,91,82,67,30.42,30.12,7,4,11,0.13
2013-6-28,63,56,50,58,52,41,96,86,62,30.12,29.89,11,6,19,0.16
2013-6-29,59,54,48,54,48,43,92,79,69,30.12,30.07,9,5,15,0.00
2013-6-30,62,56,50,56,52,46,91,84,74,30.09,29.83,20,8,25,0.12
2013-7-1,65,56,48,51,45,39,93,70,49,29.89,29.83,10,5,17,0.00
2013-7-2,57,54,48,54,48,41,94,83,67,29.86,29.42,12,3,20,0.26
2013-7-3,64,58,54,56,53,49,96,82,66,29.80,29.42,13,4,18,0.04
2013-7-4,63,59,53,61,52,46,98,81,61,30.12,29.68,13,7,23,0.58
2013-7-5,67,59,52,55,51,46,91,74,59,30.36,30.12,10,6,18,0.00
2013-7-6,72,61,48,57,51,45,92,71,50,30.42,30.30,11,4,16,0.00
2013-7-7,75,69,59,59,53,49,86,59,42,30.60,30.42,6,4,10,0.00
2013-7-8,78,66,55,62,56,51,93,73,49,30.63,30.48,6,3,10,0.00
2013-7-9,82,71,58,64,58,54,86,67,47,30.48,30.33,12,4,16,0.00
2013-7-10,71,62,56,58,55,50,89,77,62,30.39,30.33,10,5,14,0.04
2013-7-11,79,66,55,64,58,50,87,75,58,30.36,30.24,6,4,9,0.00
2013-7-12,82,71,59,67,58,56,90,68,44,30.27,30.21,8,4,14,0.00
2013-7-13,78,67,58,62,56,49,87,68,47,30.33,30.24,8,4,15,0.00
2013-7-14,70,62,56,55,50,45,83,65,50,30.30,30.18,11,5,17,0.00
2013-7-15,68,61,54,56,52,47,84,72,62,30.21,30.18,9,6,15,0.00
2013-7-16,72,65,60,61,57,53,91,76,58,30.24,30.18,8,5,13,0.00
2013-7-17,76,67,56,60,54,52,87,67,46,30.33,30.24,9,4,14,0.00
2013-7-18,80,69,58,64,59,53,87,71,52,30.39,30.33,8,4,12,0.00
2013-7-19,78,67,55,59,54,52,89,67,45,30.39,30.33,8,4,12,0.00
2013-7-20,74,64,57,59,56,52,91,75,51,30.36,30.27,9,6,14,0.00
2013-7-21,66,61,57,56,54,53,91,80,65,30.30,30.12,12,8,17,0.00
2013-7-22,68,62,58,59,57,54,93,86,73,30.12,29.98,11,7,14,0.00
2013-7-23,69,63,59,66,61,57,98,94,85,29.98,29.86,10,4,15,0.12
2013-7-24,78,66,58,65,60,57,98,82,53,29.89,29.86,6,2,10,0.00
2013-7-25,68,62,58,63,59,55,96,92,83,29.89,29.77,8,3,14,0.54
2013-7-26,72,63,58,66,59,53,97,86,66,29.86,29.80,6,2,10,0.09
2013-7-27,75,64,53,64,56,51,95,78,49,29.83,29.65,10,3,18,0.08
2013-7-28,66,61,58,61,58,55,95,91,82,29.65,29.50,6,2,8,1.03
2013-7-29,66,60,53,63,58,52,96,92,87,29.74,29.59,6,2,10,0.33
2013-7-30,70,60,50,61,52,48,97,78,50,29.77,29.74,11,5,17,0.00
2013-7-31,70,60,52,59,52,49,93,77,55,29.86,29.74,8,3,10,0.05
2013-8-1,67,62,57,63,60,55,97,93,87,29.74,29.62,8,3,14,0.66
2013-8-2,73,66,60,62,56,51,94,73,51,29.62,29.50,14,6,25,0.00
2013-8-3,65,59,56,53,51,46,87,75,56,29.83,29.53,16,8,26,0.00
2013-8-4,68,61,50,52,49,46,88,67,50,29.89,29.83,9,3,14,0.08
2013-8-5,71,59,52,56,50,46,86,73,52,29.86,29.74,6,2,11,0.00
2013-8-6,65,58,49,51,48,44,86,72,58,29.98,29.86,6,3,10,0.00
2013-8-7,69,60,52,56,52,48,88,74,58,30.03,29.95,4,1,9,0.00
2013-8-8,71,60,50,58,52,46,92,76,59,30.03,29.89,7,2,10,0.00
2013-8-9,68,60,54,57,52,46,91,75,59,30.09,29.86,9,4,13,0.05
2013-8-10,64,57,52,54,49,46,84,74,62,30.12,29.98,7,4,12,0.00
2013-8-11,63,56,52,54,50,47,93,81,64,29.98,29.86,12,5,18,0.12
2013-8-12,66,58,51,56,49,45,92,74,55,30.01,29.83,8,4,17,0.00
2013-8-13,65,56,47,52,47,43,89,71,56,30.12,30.01,6,4,11,0.00
2013-8-14,69,61,51,58,53,45,90,76,61,30.12,29.92,7,3,13,0.04
2013-8-15,66,62,60,63,60,57,96,92,86,29.92,29.74,10,5,17,0.25
2013-8-16,67,59,52,60,54,49,96,86,68,29.86,29.74,10,4,15,0.08
2013-8-17,66,58,53,63,55,50,96,89,75,29.83,29.39,12,6,20,0.46
2013-8-18,54,53,53,51,50,49,91,89,87,29.44,29.44,10,7,17,0.00
2013-8-19,63,59,54,52,49,48,83,71,61,30.15,30.01,12,6,17,0.04
2013-8-20,67,59,53,57,53,49,90,82,65,30.21,30.12,8,3,12,0.08
2013-8-21,69,62,58,63,58,55,95,88,75,30.12,30.01,7,3,10,0.25
2013-8-22,65,59,56,60,57,55,97,92,83,30.09,29.98,10,4,15,0.00
2013-8-23,57,56,56,56,56,55,98,98,97,29.98,29.92,6,4,9,0.00
2013-8-24,66,60,56,59,57,55,94,88,71,29.92,29.92,5,3,8,0.00
2013-8-25,70,65,55,60,57,52,89,76,68,30.15,30.07,4,1,6,0.00
2013-8-26,70,62,53,61,55,50,93,81,68,30.15,30.09,6,3,10,0.00
2013-8-27,67,59,53,60,54,49,91,85,77,30.18,30.07,7,4,11,0.00
2013-8-28,64,57,53,56,51,44,92,80,63,30.21,30.07,8,3,12,0.00
2013-8-29,64,58,52,59,54,45,94,86,76,30.07,29.98,10,5,14,0.04
2013-8-30,63,57,49,60,54,43,95,89,79,30.07,29.83,13,6,24,0.00
2013-8-31,61,54,48,51,44,39,88,72,49,30.27,30.07,10,5,17,0.04
2013-9-1,58,55,52,55,50,46,96,85,77,30.24,30.09,14,8,27,0.05
2013-9-2,66,61,56,61,58,55,97,91,80,30.24,30.07,13,8,22,0.04
2013-9-3,69,62,58,62,57,51,97,85,64,30.24,30.18,13,5,23,0.04
2013-9-4,68,60,53,58,52,47,94,76,56,30.18,29.89,9,3,15,0.00
2013-9-5,63,56,45,50,45,38,84,69,50,29.92,29.86,6,2,12,0.00
2013-9-6,57,49,43,47,44,37,94,81,65,29.92,29.86,7,2,12,0.58
2013-9-7,62,52,46,58,47,43,97,84,67,29.89,29.71,10,4,15,0.33
2013-9-8,61,52,45,50,45,41,88,77,63,29.95,29.89,7,3,10,0.00
2013-9-9,62,53,48,52,48,45,91,83,60,30.15,29.92,8,1,16,0.04
2013-9-10,65,55,47,52,46,43,86,73,53,30.21,30.15,6,2,10,0.00
2013-9-11,60,55,50,57,52,46,95,91,82,30.21,30.07,6,2,8,0.42
2013-9-12,64,58,52,59,55,50,96,92,81,30.07,29.86,8,4,13,0.29
2013-9-13,52,50,48,50,48,47,96,94,90,30.09,29.95,4,1,8,0.12
2013-9-14,60,51,42,53,46,42,98,84,64,30.07,29.89,6,2,9,0.04
2013-9-15,57,49,41,56,47,39,98,90,75,29.89,29.18,15,8,27,0.96
2013-9-16,54,46,39,49,43,38,97,89,75,29.33,29.24,10,6,19,0.04
2013-9-17,55,48,43,49,43,40,90,83,72,29.39,29.27,10,5,15,0.00
2013-9-18,56,48,40,50,43,38,96,85,69,29.71,29.39,9,4,14,0.00
2013-9-19,52,48,44,50,46,41,97,95,90,29.74,29.47,6,1,10,0.45
2013-9-20,58,51,44,50,47,43,98,87,70,30.01,29.74,9,3,15,0.00
2013-9-21,62,55,48,59,53,45,96,91,85,30.09,30.01,9,3,14,0.00
2013-9-22,66,60,54,60,57,52,96,90,76,30.27,30.09,12,5,17,0.05
2013-9-23,64,58,52,60,56,51,98,93,86,30.27,30.09,4,1,7,0.00
2013-9-24,59,57,55,58,56,54,98,97,95,30.09,29.95,7,2,10,0.00
2013-9-25,55,52,47,55,51,45,98,96,90,30.03,29.89,10,5,14,0.04
2013-9-26,57,50,42,50,46,41,98,88,73,30.09,30.03,6,2,10,0.00
2013-9-27,58,54,51,57,53,49,98,96,93,30.03,29.92,3,1,5,0.08
2013-9-28,63,55,48,58,52,47,98,90,73,29.92,29.83,7,2,10,0.00
2013-9-29,60,53,47,54,48,45,96,84,65,29.92,29.86,11,6,16,0.00
2013-9-30,59,53,49,50,48,46,93,81,66,29.89,29.80,12,7,18,0.00
2013-10-1,60,53,49,48,46,44,90,78,61,29.86,29.80,11,6,17,0.00
2013-10-2,57,54,52,55,52,48,98,92,84,29.83,29.74,8,4,11,0.54
2013-10-3,65,59,55,63,58,54,98,97,93,29.74,29.50,5,1,8,0.91
2013-10-4,62,58,54,61,56,52,98,95,87,29.80,29.50,6,1,10,0.17
2013-10-5,58,54,50,55,52,49,97,92,80,30.07,29.80,10,2,14,0.00
2013-10-6,60,58,55,59,56,53,97,95,88,30.09,30.01,9,4,15,0.12
2013-10-7,64,60,59,61,58,56,98,92,83,30.07,29.95,12,6,20,0.04
2013-10-8,59,55,50,58,53,46,97,93,82,30.15,29.95,10,5,17,0.13
2013-10-9,50,50,49,48,47,46,92,91,90,30.12,30.12,7,5,11,0.00
2013-10-12,54,51,47,46,44,42,91,79,68,30.39,30.24,11,8,17,0.00
2013-10-13,53,48,44,48,45,41,96,88,77,30.24,30.01,11,7,17,0.00
2013-10-14,51,48,46,51,47,45,99,97,96,30.01,29.87,6,3,10,0.12
2013-10-15,56,48,45,48,46,44,99,92,75,29.93,29.84,10,4,11,0.01
2013-10-16,51,46,41,49,45,41,99,96,86,29.91,29.53,11,4,15,0.43
2013-10-17,50,48,46,50,47,45,99,98,97,29.84,29.58,6,2,8,0.37
2013-10-18,51,50,46,51,49,45,99,97,93,29.91,29.61,8,6,11,0.28
2013-10-19,56,53,51,56,52,51,99,98,97,29.61,29.40,6,3,7,0.81
2013-10-20,60,53,49,56,52,48,99,96,84,29.42,29.35,8,3,10,0.24
2013-10-21,56,52,51,52,51,49,99,95,83,29.46,29.26,9,4,11,0.15
2013-10-22,62,56,54,56,54,52,96,91,78,29.13,28.72,8,4,10,0.57
2013-10-23,56,51,44,54,48,40,98,89,69,29.50,28.93,15,6,20,0.14
2013-10-24,58,48,44,48,44,40,97,84,64,29.83,29.50,7,3,14,0.00
2013-10-25,59,51,46,56,50,44,99,95,85,29.78,29.24,10,6,15,0.33
2013-10-26,54,51,45,53,48,44,97,89,75,29.37,29.08,15,6,24,0.09
2013-10-27,51,48,44,49,46,42,98,93,84,29.09,28.77,14,7,25,0.91
2013-10-28,54,47,43,48,45,42,98,93,74,29.28,28.81,9,4,15,0.07
2013-10-29,54,45,40,44,41,38,95,85,66,29.80,29.28,10,5,15,0.00
2013-10-30,43,41,39,42,40,38,97,94,89,29.83,29.80,6,2,8,0.00
2013-11-1,44,42,39,41,39,38,96,91,87,29.50,29.47,6,2,9,0.09
2013-11-2,44,40,35,43,39,34,98,95,87,29.47,28.78,9,4,14,0.21
2013-11-3,56,42,35,41,36,32,91,79,58,29.22,28.90,11,6,19,0.04
2013-11-4,52,40,33,40,35,31,95,83,57,29.27,29.14,5,2,10,0.00
2013-11-6,41,39,38,39,38,35,97,96,94,29.31,29.24,3,1,4,0.11
2013-11-7,46,41,35,43,38,33,97,90,78,29.40,29.28,14,6,22,0.51
2013-11-8,52,42,36,43,39,34,96,89,68,29.48,29.38,8,4,18,0.08
2013-11-9,42,36,32,40,34,30,97,93,89,29.59,29.42,3,2,8,0.08
2013-11-10,51,38,30,39,33,29,95,85,64,30.03,29.59,4,2,7,0.02
2013-11-11,53,46,36,52,44,33,97,90,77,29.96,29.72,9,4,16,0.21
2013-11-12,50,44,40,45,40,37,95,86,66,30.29,29.95,13,4,19,0.13
2013-11-13,47,45,40,44,41,39,95,88,75,30.30,29.74,14,7,22,0.20
2013-11-14,51,43,39,43,35,30,93,73,50,30.40,29.73,12,5,17,0.04
2013-11-15,50,47,40,48,43,35,95,88,82,30.40,30.26,11,5,17,0.01
2013-11-16,51,49,43,49,46,40,95,88,82,30.27,30.13,13,7,21,0.07
2013-11-21,32,31,29,25,24,23,79,75,73,30.08,30.04,2,1,4,0.00
2013-11-22,40,32,27,31,26,22,86,78,64,30.20,30.08,4,2,7,0.00
2013-11-23,47,38,31,40,34,27,96,86,72,30.35,30.19,4,2,6,0.00
2013-11-24,39,36,34,38,34,32,98,94,89,30.60,30.35,3,1,4,0.00
2013-11-25,40,34,29,38,32,27,97,92,82,30.64,30.58,3,2,5,0.01
2013-11-26,50,45,36,48,44,34,97,95,88,30.61,30.43,9,4,13,0.06
2013-11-27,55,50,46,48,47,45,96,89,77,30.45,30.39,10,4,14,0.01
2013-11-28,50,42,37,47,39,35,97,90,74,30.52,30.25,6,2,11,0.04
2013-11-29,47,42,36,45,37,30,95,81,71,30.25,30.01,15,6,21,0.20
2013-11-30,46,42,36,44,37,31,93,84,73,30.31,30.22,8,3,14,0.00
2013-12-1,55,46,42,46,42,40,94,88,69,30.50,30.29,7,2,11,0.00
2013-12-2,45,44,43,44,40,38,94,87,79,30.49,30.26,9,3,14,0.01
2013-12-3,48,44,38,46,41,34,95,88,77,30.14,30.03,8,4,14,0.09
2013-12-4,44,39,34,40,35,31,95,87,76,30.20,29.96,12,4,17,0.09
2013-12-5,47,39,30,44,32,19,94,78,53,30.04,29.35,27,10,40,3.81
2013-12-6,40,34,32,30,25,19,92,70,53,30.23,30.04,7,2,14,0.00
2013-12-7,47,40,32,46,38,30,99,95,90,30.13,29.85,12,4,17,0.09
2013-12-8,53,50,47,50,48,44,96,93,87,29.88,29.77,15,9,22,0.54
2013-12-9,52,50,48,50,46,41,95,87,76,30.11,29.86,12,7,18,0.11
2013-12-10,53,50,48,48,44,40,87,80,73,30.13,30.04,12,7,19,0.00
2013-12-11,53,48,40,48,43,36,89,82,74,30.15,29.93,15,5,17,0.00
2013-12-12,54,50,44,52,48,37,96,92,75,29.93,29.82,10,4,15,0.52
2013-12-13,54,50,42,50,46,37,95,87,80,29.84,29.62,15,7,19,0.07
2013-12-14,51,45,38,48,41,34,94,86,75,29.81,29.33,25,10,39,0.92
2013-12-15,50,43,39,45,40,35,94,87,74,29.76,29.43,17,6,24,0.12
2013-12-16,47,42,38,43,37,34,91,83,73,29.87,29.41,14,6,23,0.12
2013-12-17,46,41,36,38,35,31,89,81,71,29.98,29.63,16,6,21,0.00
2013-12-18,51,46,42,47,42,34,94,85,67,29.63,28.66,26,12,36,0.37
2013-12-19,44,38,34,36,33,30,90,83,72,29.39,28.71,26,9,29,0.45
2013-12-20,51,43,37,47,40,32,92,87,79,29.62,29.25,20,10,29,0.22
2013-12-21,47,44,38,42,38,35,91,81,74,29.38,29.16,25,10,25,0.15
2013-12-22,41,38,34,36,34,30,95,84,77,29.42,29.19,14,8,22,0.15
2013-12-23,48,40,34,47,37,30,96,86,77,29.41,28.21,14,8,21,0.09
2013-12-24,48,39,36,44,34,27,91,81,63,28.36,28.16,25,14,40,1.37
2013-12-25,44,41,39,38,36,33,91,83,72,28.97,28.37,18,9,28,0.31
2013-12-26,44,39,37,37,35,33,93,86,74,29.19,28.51,15,4,21,0.01
2013-12-27,45,43,38,42,39,34,93,88,79,28.66,28.06,21,14,29,0.92
2013-12-28,42,40,38,39,36,34,95,86,79,29.41,28.66,15,8,22,0.09
2013-12-29,44,40,38,42,38,34,98,91,82,29.70,29.35,16,5,22,0.07
2013-12-30,46,41,37,45,40,35,97,94,91,29.52,29.22,19,4,26,0.59
2013-12-31,44,41,38,40,37,34,93,86,78,29.50,29.14,16,6,24,0.05
2014-1-1,46,40,38,45,38,35,97,91,86,29.19,28.57,15,7,22,0.05
2014-1-2,44,42,40,42,39,37,95,90,83,29.04,28.59,11,6,17,0.09